Location: G�yn�k
(36.6721°N, 30.5542°E)
Time: 00:39:17
(UTC+00:00)

Daily predictions for brighter satellites

Satellite Brightness Start Highest point End
(mag) Time Altitude Azimuth Time Altitude Azimuth Time Altitude Azimuth
STARLINK-81 4.0 00:05:07 47° E 00:05:07 47° E 00:07:57 10° NE
STARLINK-54 3.8 00:06:51 54° ENE 00:06:51 54° ENE 00:09:48 10° NE
Cosmos 2154 Rocket 3.9 00:05:04 48° SSW 00:06:54 76° W 00:13:08 10° N
STARLINK-1025 4.1 00:07:33 48° ESE 00:07:33 48° ESE 00:11:19 10° ENE
Cosmos 1125 Rocket 3.3 00:02:09 10° NNW 00:07:22 82° WSW 00:08:41 51° S
STARLINK-77 3.8 00:08:15 53° E 00:08:15 53° E 00:11:13 10° NE
SL-16 R/B 2.6 00:10:23 45° SSW 00:11:57 58° W 00:18:02 10° NNW
STARLINK-1017 3.9 00:12:18 54° SE 00:12:18 54° SE 00:16:18 10° NE
STARLINK-79 3.5 00:12:57 63° ENE 00:12:57 63° ENE 00:16:07 10° NE
GEOS 3 Rocket 4.4 00:08:46 10° SE 00:13:46 53° NE 00:18:52 10° NNW
STARLINK-78 3.5 00:14:31 68° ENE 00:14:31 68° ENE 00:17:45 10° NE
Cosmos 2237 4.4 00:12:30 42° S 00:14:23 67° ESE 00:20:05 10° NNE
Cosmos 1408 3.1 00:15:11 50° ESE 00:15:30 53° E 00:19:06 10° NNE
STARLINK-57 3.4 00:16:11 73° NE 00:16:11 73° NE 00:19:30 10° NE
STARLINK-1023 3.7 00:17:05 60° SE 00:17:12 61° SE 00:21:17 10° NE
STARLINK-49 3.3 00:17:39 75° ENE 00:17:39 75° ENE 00:21:01 10° NE
STARLINK-27 3.3 00:19:13 79° NE 00:19:13 79° NE 00:22:39 10° NE
Cosmos 2227 4.4 00:14:03 10° NNW 00:19:37 52° WSW 00:20:47 45° SW
SL-08 R/B 4.5 00:16:02 11° SE 00:20:10 39° ENE 00:24:27 10° N
STARLINK-74 3.2 00:20:46 81° NNE 00:20:46 81° NNE 00:24:16 10° NE
Cosmos 1825 3.2 00:20:38 32° SE 00:21:38 39° E 00:25:09 10° NNE
STARLINK-1007 3.5 00:21:54 65° SSE 00:22:13 68° SE 00:26:20 10° NE
STARLINK-39 3.2 00:22:21 82° N 00:22:21 82° N 00:25:54 10° NE
Meteor 2-2 Rocket 4.3 00:17:15 10° NNW 00:23:15 74° W 00:25:53 35° S
STARLINK-31 3.2 00:23:56 79° NW 00:23:56 79° NW 00:27:33 10° NE
SL-16 R/B 2.8 00:22:44 35° WSW 00:24:22 43° WNW 00:29:46 10° N
STARLINK-69 3.3 00:25:36 68° NW 00:25:39 68° NW 00:29:15 10° NE
IRS-P3 4.1 00:21:01 10° NNE 00:26:22 79° ESE 00:28:35 36° S
STARLINK-1048 3.5 00:26:40 65° SSW 00:27:10 76° SE 00:31:18 10° NE
STARLINK-21 3.2 00:27:07 71° WNW 00:27:14 72° NW 00:30:51 10° NE
USA 215 3.7 00:28:06 34° SW 00:28:26 35° SW 00:34:19 10° WNW
IRIDIUM 104 4.3 00:27:10 44° SSW 00:28:47 71° W 00:34:00 10° N
COSMOS 2428 4.5 00:24:46 11° SSE 00:28:55 24° ESE 00:33:23 10° NE
STARLINK-45 3.4 00:28:46 60° WNW 00:29:00 61° NW 00:32:36 10° NE
STARLINK-76 3.3 00:31:48 60° WNW 00:32:06 63° NW 00:35:42 10° NE
STARLINK-1049 3.5 00:31:28 61° SW 00:32:09 84° SE 00:36:18 10° NE
STARLINK-70 3.5 00:32:01 55° WNW 00:32:25 59° NW 00:36:02 10° NE
Cosmos 773 Rocket 4.1 00:30:54 36° S 00:33:04 75° ESE 00:38:21 10° NNE
CZ-2D R/B 3.2 00:29:18 10° N 00:33:43 29° WNW 00:35:02 26° W
STARLINK-23 3.4 00:33:22 56° WNW 00:33:44 61° NW 00:37:20 10° NE
STARLINK-1436 (VISORSAT) 4.5 00:36:03 22° E 00:36:03 22° E 00:37:18 10° ESE
STARLINK-32 3.4 00:34:54 54° WNW 00:35:18 58° NW 00:38:51 10° NE
STARLINK-1443 4.5 00:36:27 22° E 00:36:27 22° E 00:37:41 10° ESE
STARLINK-1351 4.5 00:36:32 21° E 00:36:32 21° E 00:37:42 10° ESE
STARLINK-1403 4.5 00:36:32 22° E 00:36:32 22° E 00:37:43 10° ESE
STARLINK-1434 4.5 00:36:31 22° E 00:36:31 22° E 00:37:44 10° ESE
STARLINK-1442 4.5 00:36:32 22° E 00:36:32 22° E 00:37:44 10° ESE
STARLINK-1448 4.5 00:36:34 22° E 00:36:34 22° E 00:37:46 10° ESE
STARLINK-1449 4.5 00:36:36 22° E 00:36:36 22° E 00:37:49 10° ESE
STARLINK-1411 4.5 00:36:47 22° E 00:36:47 22° E 00:37:59 10° ESE
STARLINK-1412 4.5 00:36:46 22° E 00:36:46 22° E 00:37:59 10° ESE
STARLINK-40 3.5 00:36:29 50° WNW 00:36:59 56° NW 00:40:34 10° NE
Nadezhda 3 Rocket 4.1 00:30:49 10° NNW 00:37:00 57° W 00:39:57 31° SSW
STARLINK-1051 3.5 00:36:13 55° SW 00:37:06 87° NW 00:41:15 10° NE
Cosmos 2366 rocket 4.5 00:32:50 17° SSE 00:37:33 59° E 00:43:43 10° NNE
IRIDIUM 114 4.4 00:36:17 39° SW 00:37:56 57° W 00:43:05 10° N
STARLINK-44 3.6 00:38:00 47° WNW 00:38:34 54° NW 00:42:08 10° NE
Cosmos 2221 3.2 00:35:18 10° NNW 00:39:17 35° W 00:39:28 35° W
STARLINK-37 3.8 00:39:44 41° WNW 00:40:25 48° NW 00:43:57 10° NE
STARLINK-36 3.8 00:41:08 42° WNW 00:41:50 50° NW 00:45:22 10° NE
CBERS-1 4.5 00:39:32 10° N 00:44:25 46° WNW 00:46:17 32° WSW
STARLINK-63 4.0 00:44:23 36° WNW 00:45:15 44° NW 00:48:44 10° NE
STARLINK-60 2.9 00:42:29 10° NW 00:45:41 80° NE 00:48:52 10° SE
Cosmos 1315 Rocket 3.9 00:42:45 10° NNW 00:45:45 27° W 00:45:45 27° W
Cosmos 2360 Rocket 2.2 00:43:57 33° SW 00:46:27 67° WNW 00:52:05 10° NNE
STARLINK-35 4.0 00:45:50 36° WNW 00:46:42 44° NW 00:50:09 10° NE
STARLINK-1028 3.7 00:45:47 42° WSW 00:47:03 71° NW 00:51:12 10° NE
STARLINK-51 4.0 00:47:27 34° W 00:48:25 43° NW 00:51:53 10° NE
STARLINK-30 4.1 00:49:01 32° W 00:50:03 41° NW 00:53:31 10° NE
Cosmos 2058 4.0 00:50:48 27° W 00:51:23 28° WNW 00:55:02 10° NNW
STARLINK-72 4.1 00:50:31 31° W 00:51:35 39° NW 00:54:59 10° NNE
STARLINK-1021 3.8 00:50:36 37° WSW 00:52:04 64° NW 00:56:11 10° NE
STARLINK-1010 4.0 00:52:17 33° WSW 00:53:57 59° NW 00:58:09 10° NE
STARLINK-59 4.4 00:53:43 27° WNW 00:54:58 35° NW 00:58:17 10° NNE
STARLINK-56 4.3 00:55:16 26° W 00:56:34 36° NW 00:59:58 10° NNE
STARLINK-1019 3.9 00:55:21 32° WSW 00:57:01 58° NW 01:01:07 10° NE
STARLINK-73 4.4 00:56:49 25° W 00:58:13 35° NW 01:01:35 10° NNE
Shenzhou-11 Module 4.1 00:56:40 11° NW 00:58:26 19° N 01:00:19 10° NE
Cosmos 2333 Rocket 2.7 00:55:34 18° S 00:59:43 56° ESE 01:05:15 10° NNE
STARLINK-38 4.5 00:58:23 24° W 00:59:51 34° NW 01:03:11 10° NNE
STARLINK-1012 4.1 01:00:08 28° WSW 01:02:01 52° NW 01:06:05 10° NE
Cosmos 2219 Rocket 2.7 00:59:50 16° S 01:04:08 56° ESE 01:09:36 10° NNE
Cosmos 2322 3.7 01:01:33 23° SSW 01:05:16 89° WNW 01:11:01 10° NNE
Cosmos 864 Rocket 4.4 01:00:27 17° S 01:05:16 85° W 01:11:27 10° N
SL-24 DEB 4.1 01:01:45 10° N 01:06:21 73° W 01:09:25 21° SSW
Cosmos 2344 4.3 01:00:16 12° S 01:07:08 47° ESE 01:14:18 10° NE
Meteor 1-28 Rocket 3.1 01:05:37 15° S 01:08:37 84° W 01:12:22 10° NNW
ADEOS II 3.0 01:07:13 10° N 01:11:54 34° WNW 01:14:40 20° WSW
STARLINK-1026 4.4 01:09:41 22° W 01:11:59 43° NW 01:15:58 10° NE
Cosmos 2333 4.2 01:10:50 21° SSW 01:14:42 78° WNW 01:20:20 10° NNE
ATLAS 5 CENTAUR R/B 3.1 01:11:33 11° S 01:14:51 27° ESE 01:18:28 10° NE
Cosmos 2263 Rocket 3.5 01:11:28 10° WNW 01:15:13 19° W 01:15:58 18° WSW
IDEFIX/ARIANE 42P 2.7 01:10:30 10° NNE 01:15:47 80° ESE 01:20:38 12° S
STARLINK-29 3.1 01:15:17 10° NW 01:18:28 74° NE 01:21:37 10° SE
ERS-2 2.0 01:15:02 11° S 01:18:35 76° WSW 01:22:15 10° NNW
CZ-3 R/B 4.2 00:42:18 15° WSW 01:19:00 56° S 01:29:44 10° E
STARLINK-1052 4.5 01:16:44 19° SSW 01:19:19 41° SE 01:23:13 10° ENE
SL-4 R/B 2.3 01:15:44 10° WNW 01:20:22 54° SW 01:24:44 10° SSE
ARIANE 5 R/B 3.0 01:17:01 10° N 01:21:44 44° WNW 01:25:02 18° SW
USA 229 DEB 4.4 01:15:29 10° NW 01:22:05 36° WSW 01:28:53 10° S
USA 229 4.4 01:15:35 10° NW 01:22:12 36° WSW 01:29:01 10° S
Cosmos 1606 2.7 01:18:42 10° N 01:22:30 82° E 01:26:17 10° S
Cosmos 1408 Rocket 3.5 01:23:04 12° S 01:26:59 87° W 01:31:18 10° N
STARLINK-1033 4.1 01:26:18 17° SSW 01:29:13 52° SE 01:33:15 10° ENE
Cosmos 1844 3.9 01:24:06 10° NNW 01:29:56 83° ENE 01:35:42 10° SSE
CZ-2D R/B 4.0 01:26:19 10° N 01:30:25 46° WNW 01:33:38 16° SW
CZ-2C R/B 2.7 01:27:27 10° N 01:31:14 70° WNW 01:34:33 13° SSW
NOSS 3-1 (A) 4.4 01:23:55 10° NW 01:31:31 47° WSW 01:39:51 10° S
BREEZE-M DEB (TANK) 4.4 01:30:28 10° NNW 01:32:44 24° NE 01:36:43 10° E
Cosmos 1680 Rocket 4.2 01:27:43 10° S 01:32:48 53° ESE 01:37:56 10° NNE
Cosmos 2322 Rocket 4.2 01:30:20 10° W 01:33:24 15° NW 01:36:29 10° NNW
Meteor 2-3 Rocket 3.7 01:27:55 10° S 01:33:31 89° ESE 01:39:08 10° N
STARLINK-1031 4.0 01:31:06 16° SSW 01:34:12 58° SE 01:38:16 10° NE
Cosmos 923 Rocket 4.0 01:33:56 10° SSW 01:39:07 84° ESE 01:44:20 10° NNE
STARLINK-1024 3.8 01:35:52 15° SW 01:39:09 65° SE 01:43:16 10° NE
Cosmos 1633 3.1 01:36:49 10° S 01:40:20 59° E 01:43:54 10° NNE
CZ-4B R/B 3.5 01:39:11 10° SE 01:41:51 28° ENE 01:44:35 10° NNE
Cosmos 1151 Rocket 3.1 01:38:50 10° NNW 01:43:09 61° W 01:47:27 10° S
H-2A R/B 2.3 01:39:03 10° S 01:43:19 51° W 01:47:42 10° NNW
STARLINK-1035 3.7 01:40:40 14° SW 01:44:08 73° SE 01:48:16 10° NE
Lacrosse 5 rocket 1.2 01:41:59 14° SW 01:45:26 79° NW 01:49:19 10° NE
deb Chang Zheng 4 3.8 01:41:58 10° NNE 01:46:14 72° ESE 01:50:27 10° S
STARLINK-1032 3.6 01:45:25 13° SW 01:49:04 81° SE 01:53:13 10° NE
STARLINK-1037 3.6 01:48:27 12° SW 01:52:12 88° SE 01:56:21 10° NE
STARLINK-52 3.1 01:50:39 10° WNW 01:53:45 47° SW 01:56:50 10° SSE
STARLINK-1011 3.6 01:50:13 12° SW 01:54:03 90° SE 01:58:13 10° NE
Cosmos 1515 Rocket 3.5 01:50:27 10° N 01:54:49 83° W 01:59:08 10° S
Cosmos 1825 4.4 01:56:30 10° W 01:57:19 11° WNW 01:58:08 10° WNW
STARLINK-1036 3.6 01:55:00 11° SW 01:59:02 82° NW 02:03:11 10° NE
Cosmos 2237 Rocket 2.8 01:55:15 10° S 02:00:46 58° ESE 02:06:21 10° NNE
Iridium 4 Rocket 3.6 01:57:16 10° S 02:02:12 83° E 02:07:39 10° N
Cosmos 1818 3.7 01:56:58 10° SW 02:02:20 65° WNW 02:07:46 10° NNE
STARLINK-1044 3.7 01:59:53 10° SW 02:04:01 74° NW 02:08:09 10° NE
Cosmos 1346 Rocket 2.8 02:02:50 10° S 02:06:50 85° WNW 02:10:49 10° N
PAYLOAD A 3.9 02:02:07 10° N 02:06:54 83° WNW 02:11:49 10° SSW
STARLINK-1047 3.8 02:04:53 10° SW 02:09:00 67° NW 02:13:07 10° NE
MSX 4.2 02:04:28 10° N 02:09:59 49° WNW 02:15:28 10° SW
Cosmos 1844 Rocket 3.3 02:05:06 10° NW 02:10:03 34° WSW 02:14:59 10° SSW
COSMOS 2428 3.3 02:07:33 10° SW 02:12:52 41° WNW 02:18:13 10° N
